Time,TemperatureF,DewpointF,PressureIn,WindDirection,WindDirectionDegrees,WindSpeedMPH,WindSpeedGustMPH,Humidity,HourlyPrecipIn,Conditions,Clouds,dailyrainin,SoftwareType,DateUTC
2014-08-20 00:01:00,66.4,60.5,29.65,West,270,3.8,6.7,81,0.00,,,0.00,WUHU216HW,2014-08-20 05:01:00,
2014-08-20 00:06:00,66.4,60.8,29.66,WSW,248,4.5,6.7,82,0.00,,,0.00,WUHU216HW,2014-08-20 05:06:00,
2014-08-20 00:11:00,66.6,60.7,29.66,WSW,248,2.9,6.5,81,0.00,,,0.00,WUHU216HW,2014-08-20 05:11:00,
2014-08-20 00:16:00,66.2,59.9,29.66,WSW,248,1.1,5.4,80,0.00,,,0.00,WUHU216HW,2014-08-20 05:16:00,
2014-08-20 00:21:00,65.9,60.0,29.66,West,270,2.2,5.4,81,0.00,,,0.00,WUHU216HW,2014-08-20 05:21:00,
2014-08-20 00:26:00,65.7,60.0,29.66,West,270,6.0,6.0,82,0.00,,,0.00,WUHU216HW,2014-08-20 05:26:00,
2014-08-20 00:31:00,65.9,60.2,29.66,West,270,2.7,6.0,82,0.00,,,0.00,WUHU216HW,2014-08-20 05:31:00,
2014-08-20 00:36:00,66.1,61.0,29.66,WNW,293,2.5,6.0,84,0.00,,,0.00,WUHU216HW,2014-08-20 05:36:00,
2014-08-20 00:41:00,66.1,60.8,29.66,WNW,293,2.2,4.7,83,0.00,,,0.00,WUHU216HW,2014-08-20 05:41:00,
2014-08-20 00:46:00,66.2,60.9,29.66,NW,315,3.1,4.7,83,0.00,,,0.00,WUHU216HW,2014-08-20 05:46:00,
2014-08-20 00:51:00,66.2,60.9,29.66,WNW,293,2.7,4.5,83,0.00,,,0.00,WUHU216HW,2014-08-20 05:51:00,
2014-08-20 00:56:00,66.2,60.9,29.66,West,270,1.8,4.5,83,0.00,,,0.00,WUHU216HW,2014-08-20 05:56:00,
2014-08-20 01:01:00,66.1,61.0,29.66,West,270,1.6,3.8,84,0.00,,,0.00,WUHU216HW,2014-08-20 06:01:00,
2014-08-20 01:06:00,65.9,60.6,29.66,WNW,293,1.3,2.9,83,0.00,,,0.00,WUHU216HW,2014-08-20 06:06:00,
2014-08-20 01:11:00,65.9,60.6,29.66,West,270,2.2,4.0,83,0.00,,,0.00,WUHU216HW,2014-08-20 06:11:00,
2014-08-20 01:16:00,65.9,60.6,29.66,West,270,1.6,4.0,83,0.00,,,0.00,WUHU216HW,2014-08-20 06:16:00,
2014-08-20 01:21:00,65.3,60.0,29.66,WNW,293,2.0,3.8,83,0.00,,,0.00,WUHU216HW,2014-08-20 06:21:00,
2014-08-20 01:26:00,65.2,59.9,29.66,West,270,3.1,4.0,83,0.00,,,0.00,WUHU216HW,2014-08-20 06:26:00,
2014-08-20 01:31:00,64.8,59.5,29.66,West,270,2.7,4.0,83,0.00,,,0.00,WUHU216HW,2014-08-20 06:31:00,
2014-08-20 01:36:00,64.6,59.3,29.66,WSW,248,1.1,4.0,83,0.00,,,0.00,WUHU216HW,2014-08-20 06:36:00,
2014-08-20 01:41:00,64.8,59.9,29.66,WSW,248,1.8,4.0,84,0.00,,,0.00,WUHU216HW,2014-08-20 06:41:00,
2014-08-20 01:46:00,65.0,60.0,29.66,WSW,248,0.0,2.5,84,0.00,,,0.00,WUHU216HW,2014-08-20 06:46:00,
2014-08-20 01:51:00,64.6,59.1,29.66,WSW,248,0.7,1.8,82,0.00,,,0.00,WUHU216HW,2014-08-20 06:51:00,
2014-08-20 01:56:00,64.3,58.7,29.66,SW,225,0.7,1.8,82,0.00,,,0.00,WUHU216HW,2014-08-20 06:56:00,
2014-08-20 02:01:00,63.9,58.3,29.66,SW,225,0.4,1.1,82,0.00,,,0.00,WUHU216HW,2014-08-20 07:01:00,
2014-08-20 02:06:00,63.5,58.2,29.66,SW,225,0.4,1.1,83,0.00,,,0.00,WUHU216HW,2014-08-20 07:06:00,
2014-08-20 02:11:00,63.4,58.1,29.66,SW,225,0.0,0.7,83,0.00,,,0.00,WUHU216HW,2014-08-20 07:11:00,
2014-08-20 02:16:00,63.0,57.7,29.66,SW,225,0.0,0.4,83,0.00,,,0.00,WUHU216HW,2014-08-20 07:16:00,
2014-08-20 02:21:00,63.0,58.1,29.66,SW,225,0.4,0.9,84,0.00,,,0.00,WUHU216HW,2014-08-20 07:21:00,
2014-08-20 02:26:00,63.0,58.4,29.67,SW,225,1.1,1.1,85,0.00,,,0.00,WUHU216HW,2014-08-20 07:26:00,
2014-08-20 02:31:00,62.8,57.9,29.67,SW,225,2.2,2.2,84,0.00,,,0.00,WUHU216HW,2014-08-20 07:31:00,
2014-08-20 02:36:00,62.6,58.1,29.67,WSW,248,1.6,2.2,85,0.00,,,0.00,WUHU216HW,2014-08-20 07:36:00,
2014-08-20 02:41:00,62.5,57.9,29.67,WSW,248,0.9,2.2,85,0.00,,,0.00,WUHU216HW,2014-08-20 07:41:00,
2014-08-20 02:46:00,62.5,57.9,29.67,WSW,248,1.1,1.6,85,0.00,,,0.00,WUHU216HW,2014-08-20 07:46:00,
2014-08-20 02:51:00,62.3,57.7,29.67,WSW,248,2.0,2.2,85,0.00,,,0.00,WUHU216HW,2014-08-20 07:51:00,
2014-08-20 02:56:00,62.5,58.2,29.68,SW,225,4.3,4.7,86,0.00,,,0.00,WUHU216HW,2014-08-20 07:56:00,
2014-08-20 03:01:00,62.6,58.8,29.67,WSW,248,3.8,4.7,87,0.00,,,0.00,WUHU216HW,2014-08-20 08:01:00,
2014-08-20 03:06:00,62.8,59.0,29.68,WSW,248,8.3,8.3,87,0.00,,,0.00,WUHU216HW,2014-08-20 08:06:00,
2014-08-20 03:11:00,62.8,58.6,29.68,WSW,248,6.3,9.8,86,0.00,,,0.00,WUHU216HW,2014-08-20 08:11:00,
2014-08-20 03:16:00,62.6,58.8,29.68,WSW,248,8.1,10.5,87,0.00,,,0.00,WUHU216HW,2014-08-20 08:16:00,
2014-08-20 03:20:00,62.8,59.0,29.68,WSW,248,8.7,10.5,87,0.00,,,0.00,WUHU216HW,2014-08-20 08:20:00,
2014-08-20 03:25:00,63.0,59.1,29.68,WSW,248,3.6,9.8,87,0.00,,,0.00,WUHU216HW,2014-08-20 08:25:00,
2014-08-20 03:30:00,63.0,59.1,29.68,WSW,248,8.5,9.8,87,0.00,,,0.00,WUHU216HW,2014-08-20 08:30:00,
2014-08-20 03:35:00,62.8,59.0,29.68,West,270,2.2,9.8,87,0.00,,,0.00,WUHU216HW,2014-08-20 08:35:00,
2014-08-20 03:40:00,62.8,59.0,29.68,WNW,293,1.3,8.5,87,0.00,,,0.00,WUHU216HW,2014-08-20 08:40:00,
2014-08-20 03:45:00,63.0,59.1,29.68,WSW,248,1.1,3.8,87,0.00,,,0.00,WUHU216HW,2014-08-20 08:45:00,
2014-08-20 03:50:00,62.6,58.8,29.68,West,270,2.0,3.1,87,0.00,,,0.00,WUHU216HW,2014-08-20 08:50:00,
2014-08-20 03:55:00,62.6,58.8,29.68,West,270,2.0,3.1,87,0.00,,,0.00,WUHU216HW,2014-08-20 08:55:00,
2014-08-20 04:00:00,62.8,59.0,29.69,West,270,3.6,4.7,87,0.00,,,0.00,WUHU216HW,2014-08-20 09:00:00,
2014-08-20 04:05:00,63.0,59.8,29.69,West,270,2.7,4.7,89,0.00,,,0.00,WUHU216HW,2014-08-20 09:05:00,
2014-08-20 04:10:00,63.2,59.9,29.69,WNW,293,3.4,4.7,89,0.00,,,0.00,WUHU216HW,2014-08-20 09:10:00,
2014-08-20 04:15:00,63.2,59.9,29.69,WNW,293,2.0,4.5,89,0.00,,,0.00,WUHU216HW,2014-08-20 09:15:00,
2014-08-20 04:20:00,63.2,59.9,29.69,WNW,293,2.2,4.5,89,0.00,,,0.00,WUHU216HW,2014-08-20 09:20:00,
2014-08-20 04:25:00,63.2,59.9,29.69,NW,315,4.7,6.7,89,0.00,,,0.00,WUHU216HW,2014-08-20 09:25:00,
2014-08-20 04:30:00,63.2,60.3,29.68,NW,315,6.9,7.6,90,0.00,,,0.00,WUHU216HW,2014-08-20 09:30:00,
2014-08-20 04:35:00,63.4,60.1,29.68,WNW,293,6.5,7.6,89,0.00,,,0.00,WUHU216HW,2014-08-20 09:35:00,
2014-08-20 04:40:00,63.2,60.3,29.68,WNW,293,3.8,6.9,90,0.00,,,0.00,WUHU216HW,2014-08-20 09:40:00,
2014-08-20 04:45:00,63.2,59.9,29.68,NW,315,5.4,6.5,89,0.00,,,0.00,WUHU216HW,2014-08-20 09:45:00,
2014-08-20 04:50:00,63.0,60.1,29.69,West,270,4.9,8.7,90,0.00,,,0.00,WUHU216HW,2014-08-20 09:50:00,
2014-08-20 04:55:00,63.0,60.1,29.68,NW,315,4.7,8.7,90,0.00,,,0.00,WUHU216HW,2014-08-20 09:55:00,
2014-08-20 05:00:00,63.0,59.8,29.68,NW,315,3.8,8.5,89,0.00,,,0.00,WUHU216HW,2014-08-20 10:00:00,
2014-08-20 05:05:00,63.0,60.1,29.69,NNW,338,1.8,8.5,90,0.00,,,0.00,WUHU216HW,2014-08-20 10:05:00,
2014-08-20 05:10:00,63.0,59.8,29.69,NNW,338,7.2,8.1,89,0.00,,,0.00,WUHU216HW,2014-08-20 10:10:00,
2014-08-20 05:15:00,62.8,59.6,29.68,WNW,293,0.7,8.1,89,0.00,,,0.00,WUHU216HW,2014-08-20 10:15:00,
2014-08-20 05:20:00,62.6,59.4,29.69,WNW,293,0.0,7.2,89,0.00,,,0.00,WUHU216HW,2014-08-20 10:20:00,
2014-08-20 05:25:00,62.5,59.2,29.68,WNW,293,0.0,1.1,89,0.00,,,0.00,WUHU216HW,2014-08-20 10:25:00,
2014-08-20 05:30:00,62.3,59.0,29.68,WNW,293,0.4,0.4,89,0.00,,,0.00,WUHU216HW,2014-08-20 10:30:00,
2014-08-20 05:35:00,61.9,58.4,29.68,WNW,293,0.0,0.4,88,0.00,,,0.00,WUHU216HW,2014-08-20 10:35:00,
2014-08-20 05:40:00,61.6,58.1,29.69,WNW,293,0.0,0.4,88,0.00,,,0.00,WUHU216HW,2014-08-20 10:40:00,
2014-08-20 05:45:00,61.4,57.9,29.69,SW,225,0.0,1.1,88,0.00,,,0.00,WUHU216HW,2014-08-20 10:45:00,
2014-08-20 05:50:00,61.0,57.5,29.69,SW,225,0.4,1.1,88,0.00,,,0.00,WUHU216HW,2014-08-20 10:50:00,
2014-08-20 05:55:00,60.8,57.3,29.69,SW,225,0.4,0.9,88,0.00,,,0.00,WUHU216HW,2014-08-20 10:55:00,
2014-08-20 06:00:00,60.8,57.3,29.69,SW,225,0.0,0.7,88,0.00,,,0.00,WUHU216HW,2014-08-20 11:00:00,